Effective Sunday, March 17, 2024, the National Weather Service National Data Buoy Center will discontinue its Dial-A-Buoy Interactive Voice Response system. For more information, see Service Change Notice 24-06 (PDF).

Station RCKM4 - 9076024 - Rock Cut, MI Image indicating link to RSS feed of recent meteorological observations for station RCKM4


Conditions at RCKM4 as of
(2:00 am EST)
0700 GMT on 02/22/2024:
     

Click on the graph icon in the table below to see a time series plot of the last five days of that observation.

5-day plot - Wind Direction Wind Direction (WDIR): NW ( 310 deg true )
5-day plot - Wind Speed Wind Speed (WSPD): 6.0 kts
5-day plot - Wind Gust Wind Gust (GST): 7.0 kts
5-day plot - Atmospheric Pressure Atmospheric Pressure (PRES):29.75 in
5-day plot - Pressure Tendency Pressure Tendency (PTDY):-0.01 in ( Falling )
5-day plot - Wind Speed at 10 Meters Wind Speed at 10 meters (WSPD10M): 5.8 kts
5-day plot - Wind Speed at 20 Meters Wind Speed at 20 meters (WSPD20M): 5.8 kts
5-day plot -  Wind Speed, Wind Gust and Atmospheric Pressure Combined plot of Wind Speed, Gust, and Air Pressure
NOS Water Level Observation Network Water Level
Previous observations
TIME
(EST)
5-day plot - Wind Direction
WDIR
 
5-day plot - Wind Speed
WSPD
kts
5-day plot - Wind Gust
GST
kts
5-day plot - Wave Height
WVHT
ft
5-day plot - Dominant Wave Period
DPD
sec
5-day plot - Average Wave Period
APD
sec
5-day plot - Mean Wave Direction
MWD
 
5-day plot - Atmospheric Pressure
PRES
in
5-day plot - Pressure Tendency
PTDY
in
5-day plot - Air Temperature
ATMP
°F
5-day plot - Water Temperature
WTMP
°F
5-day plot - Dew Point
DEWP
°F
5-day plot - Salinity
SAL
psu
5-day plot - Visibility
VIS
nmi
5-day plot - Tide (above MLLW)
TIDE
ft
2024-02-22 01:54 am NW 6.0 8.0----29.75-------
2024-02-22 01:48 am NW 6.0 7.0----29.75-------
2024-02-22 01:42 am NW 6.0 7.0----29.75-------
2024-02-22 01:36 am NW 6.0 8.0----29.75-------
2024-02-22 01:30 am NW 7.0 8.0----29.75-------
2024-02-22 01:24 am NW 6.0 7.0----29.75-------
2024-02-22 01:18 am NW 6.0 7.0----29.75-------
2024-02-22 01:12 am NW 6.0 7.0----29.76-------
2024-02-22 01:06 am NW 5.1 7.0----29.76-------
2024-02-22 01:00 am NW 6.0 6.0----29.76-0.01------
2024-02-22 12:54 am NW 5.1 6.0----29.76-------
2024-02-22 12:48 am NW 2.9 5.1----29.76-------
2024-02-22 12:42 am NW 1.9 2.9----29.76-------
2024-02-22 12:36 am NW 1.9 1.9----29.76-------
2024-02-22 12:30 am N 1.9 2.9----29.76-------
2024-02-22 12:24 am N 1.0 1.9----29.76-------
2024-02-22 12:18 am NE 1.0 1.0----29.76-------
2024-02-22 12:12 am- 0.0 1.0----29.76-------
2024-02-22 12:06 am- 0.0 1.9----29.77-------
2024-02-22 12:00 am- 0.0 1.9----29.77+0.00------
2024-02-21 11:54 pmNNW 1.0 1.9----29.77-------
2024-02-21 11:48 pmNNW 1.0 1.9----29.77-------
2024-02-21 11:42 pm NW 1.9 2.9----29.77-------
2024-02-21 11:36 pm NW 1.9 1.9----29.77-------
2024-02-21 11:30 pmNNW 1.9 1.9----29.77-------
2024-02-21 11:24 pm- 0.0 1.0----29.77-------
2024-02-21 11:18 pmNNW 1.0 1.0----29.77-------
2024-02-21 11:12 pm- 0.0 1.9----29.77-------
2024-02-21 11:06 pm NW 1.0 1.9----29.77-------
2024-02-21 11:00 pm- 0.0 1.0----29.77-0.01------
2024-02-21 10:54 pmWNW 1.0 2.9----29.77-------
2024-02-21 10:48 pmWNW 1.9 4.1----29.77-------
2024-02-21 10:42 pm NW 1.9 2.9----29.77-------
2024-02-21 10:36 pmWNW 1.0 4.1----29.77-------
2024-02-21 10:30 pm NW 2.9 5.1----29.77-------
2024-02-21 10:24 pm NW 4.1 5.1----29.77-------
2024-02-21 10:18 pmNNW 4.1 5.1----29.77-------
2024-02-21 10:12 pmNNW 5.1 5.1----29.76-------
2024-02-21 10:06 pm NW 5.1 7.0----29.77-------
2024-02-21 10:00 pm NW 6.0 7.0----29.77-0.01------
2024-02-21 09:54 pm NW 6.0 7.0----29.77-------
2024-02-21 09:48 pmNNW 2.9 5.1----29.77-------
2024-02-21 09:42 pm NW 5.1 7.0----29.77-------
2024-02-21 09:36 pm NW 7.0 7.0----29.77-------
2024-02-21 09:30 pmNNW 6.0 6.0----29.77-------
2024-02-21 09:24 pm NW 5.1 6.0----29.77-------
2024-02-21 09:18 pm NW 4.1 6.0----29.78-------
2024-02-21 09:12 pm NW 4.1 5.1----29.78-------
2024-02-21 09:06 pmNNW 2.9 2.9----29.77-------
2024-02-21 09:00 pmNNW 2.9 4.1----29.77+0.01------
2024-02-21 08:54 pmNNW 2.9 4.1----29.78-------
2024-02-21 08:48 pm NW 1.9 2.9----29.78-------
2024-02-21 08:42 pm NW 2.9 4.1----29.78-------
2024-02-21 08:36 pmWNW 2.9 4.1----29.77-------
2024-02-21 08:30 pm NW 2.9 2.9----29.77-------
2024-02-21 08:24 pm NW 2.9 2.9----29.77-------
2024-02-21 08:18 pm W 1.9 2.9----29.77-------
2024-02-21 08:12 pm W 1.9 2.9----29.78-------
2024-02-21 08:06 pm W 1.9 2.9----29.78-------
2024-02-21 08:00 pm NW 1.0 1.9----29.78+0.02------
2024-02-21 07:54 pmWNW 1.9 4.1----29.78-------
2024-02-21 07:48 pmWNW 2.9 5.1----29.78-------
2024-02-21 07:42 pm W 2.9 5.1----29.78-------
2024-02-21 07:36 pm W 2.9 4.1----29.78-------
2024-02-21 07:30 pmWSW 2.9 4.1----29.79-------
2024-02-21 07:24 pmWSW 2.9 2.9----29.78-------
2024-02-21 07:18 pm SW 1.0 1.9----29.78-------
2024-02-21 07:12 pm W 1.9 2.9----29.78-------
2024-02-21 07:06 pmWNW 1.9 5.1----29.78-------
2024-02-21 07:00 pmWNW 2.9 5.1----29.78+0.01------
2024-02-21 06:54 pm W 2.9 5.1----29.78-------
2024-02-21 06:48 pmWNW 1.9 4.1----29.78-------
2024-02-21 06:42 pmWNW 2.9 6.0----29.77-------
2024-02-21 06:36 pmWNW 4.1 5.1----29.77-------
2024-02-21 06:30 pmWNW 2.9 4.1----29.77-------
2024-02-21 06:24 pmWNW 2.9 4.1----29.77-------
2024-02-21 06:18 pmWSW 1.9 2.9----29.77-------
2024-02-21 06:12 pmSSW 1.0 1.9----29.77-------
2024-02-21 06:06 pm- 0.0 1.9----29.76-------
2024-02-21 06:00 pm NW 1.0 4.1----29.76-0.01------
2024-02-21 05:54 pmNNE 1.9 2.9----29.76-------
2024-02-21 05:48 pm S 1.0 4.1----29.76-------
2024-02-21 05:42 pmSSE 4.1 4.1----29.76-------
2024-02-21 05:36 pm SE 1.9 1.9----29.75-------
2024-02-21 05:30 pmESE 1.9 2.9----29.75-------
2024-02-21 05:24 pm E 2.9 4.1----29.75-------
2024-02-21 05:18 pmESE 2.9 4.1----29.75-------
2024-02-21 05:12 pm SE 1.0 4.1----29.75-------
2024-02-21 05:06 pm S 1.9 4.1----29.75-------
2024-02-21 05:00 pmSSW 2.9 5.1----29.75-0.03------
2024-02-21 04:54 pm S 1.9 5.1----29.75-------
2024-02-21 04:48 pmSSW 1.9 7.0----29.75-------
2024-02-21 04:42 pmSSW 4.1 8.9----29.75-------
2024-02-21 04:36 pm S 1.9 4.1----29.75-------
2024-02-21 04:30 pm S 2.9 4.1----29.75-------
2024-02-21 04:24 pm S 2.9 5.1----29.75-------
2024-02-21 04:18 pm S 2.9 5.1----29.75-------
2024-02-21 04:12 pm S 2.9 5.1----29.76-------
2024-02-21 04:06 pm S 4.1 6.0----29.77-------
2024-02-21 04:00 pm S 5.1 8.0----29.77-0.03------
2024-02-21 03:54 pmSSW 2.9 6.0----29.76-------
2024-02-21 03:48 pm S 4.1 6.0----29.77-------
2024-02-21 03:42 pm SW 4.1 6.0----29.77-------
2024-02-21 03:36 pmWSW 2.9 6.0----29.76-------
2024-02-21 03:30 pm W 5.1 8.0----29.76-------
2024-02-21 03:24 pm W 5.1 8.0----29.76-------
2024-02-21 03:18 pm W 4.1 8.9----29.76-------
2024-02-21 03:12 pm W 6.0 9.9----29.76-------
2024-02-21 03:06 pm W 7.0 8.9----29.77-------
2024-02-21 03:00 pmWSW 5.1 8.0----29.77-0.04------
2024-02-21 02:54 pm W 6.0 12.0----29.77-------
2024-02-21 02:48 pm W 6.0 11.1----29.77-------
2024-02-21 02:42 pm W 7.0 15.0----29.77-------
2024-02-21 02:36 pmWNW 9.9 13.0----29.77-------
2024-02-21 02:30 pm W 4.1 12.0----29.77-------
2024-02-21 02:24 pm W 9.9 15.0----29.77-------
2024-02-21 02:18 pm W 8.0 13.0----29.78-------
2024-02-21 02:12 pmWSW 7.0 11.1----29.78-------
2024-02-21 02:06 pm W 6.0 11.1----29.78-------
2024-02-21 02:00 pmWNW 4.1 9.9----29.78-0.04------
2024-02-21 01:54 pm W 7.0 11.1----29.78-------
2024-02-21 01:48 pm W 6.0 12.0----29.78-------
2024-02-21 01:42 pm W 8.0 13.0----29.78-------
2024-02-21 01:36 pmWSW 8.0 13.0----29.78-------
2024-02-21 01:30 pmWSW 8.0 11.1----29.79-------
2024-02-21 01:24 pm W 5.1 14.0----29.79-------
2024-02-21 01:18 pmWSW 6.0 9.9----29.79-------
2024-02-21 01:12 pmWSW 5.1 8.9----29.79-------
2024-02-21 01:06 pm SW 4.1 8.9----29.79-------
2024-02-21 01:00 pm SW 8.0 11.1----29.80-0.04------
2024-02-21 12:54 pm SW 7.0 11.1----29.80-------
2024-02-21 12:48 pmSSW 6.0 8.9----29.80-------
2024-02-21 12:42 pm S 5.1 6.0----29.80-------
2024-02-21 12:36 pm S 1.0 5.1----29.79-------
2024-02-21 12:30 pm NW 1.9 4.1----29.80-------
2024-02-21 12:24 pm SW 4.1 6.0----29.80-------
2024-02-21 12:18 pmSSW 2.9 7.0----29.80-------
2024-02-21 12:12 pm SW 4.1 6.0----29.80-------
2024-02-21 12:06 pm W 1.9 5.1----29.80-------
2024-02-21 12:00 pm SW 5.1 9.9----29.81-0.03------
2024-02-21 11:54 am S 5.1 9.9----29.81-------
2024-02-21 11:48 am SW 6.0 8.9----29.81-------
2024-02-21 11:42 am SW 6.0 11.1----29.82-------
2024-02-21 11:36 am SW 5.1 9.9----29.81-------
2024-02-21 11:30 am SW 6.0 12.0----29.81-------
2024-02-21 11:24 am SW 8.0 12.0----29.82-------
2024-02-21 11:18 amSSW 5.1 12.0----29.82-------
2024-02-21 11:12 amSSW 8.0 12.0----29.82-------
2024-02-21 11:06 am SW 6.0 14.0----29.82-------
2024-02-21 11:00 amSSW 8.0 12.0----29.82-0.02------
2024-02-21 10:54 amSSW 5.1 8.9----29.82-------
2024-02-21 10:48 amSSW 6.0 8.9----29.82-------
2024-02-21 10:42 amSSW 4.1 12.0----29.82-------
2024-02-21 10:36 am SW 8.9 14.0----29.83-------
2024-02-21 10:30 am S 4.1 7.0----29.83-------
2024-02-21 10:24 am S 5.1 9.9----29.83-------
2024-02-21 10:18 amSSE 5.1 7.0----29.83-------
2024-02-21 10:12 am SE 4.1 5.1----29.83-------
2024-02-21 10:06 am SE 4.1 5.1----29.83-------
2024-02-21 10:00 am SE 4.1 5.1----29.83-0.01------
2024-02-21 09:54 am SE 4.1 5.1----29.83-------
2024-02-21 09:48 am SE 4.1 5.1----29.83-------
2024-02-21 09:42 am SE 4.1 5.1----29.84-------
2024-02-21 09:36 am SE 4.1 5.1----29.84-------
2024-02-21 09:30 am SE 4.1 5.1----29.84-------
2024-02-21 09:24 amSSE 2.9 5.1----29.84-------
2024-02-21 09:18 amSSE 4.1 5.1----29.84-------
2024-02-21 09:12 am SE 2.9 4.1----29.84-------
2024-02-21 09:06 am SE 1.9 4.1----29.84-------
2024-02-21 09:00 amSSE 2.9 2.9----29.84-0.01------
2024-02-21 08:54 am S 1.9 2.9----29.85-------
2024-02-21 08:48 am S 1.0 1.9----29.85-------
2024-02-21 08:42 am SE 1.0 1.9----29.85-------
2024-02-21 08:36 am SE 1.0 1.9----29.84-------
2024-02-21 08:30 amSSE 1.0 1.0----29.85-------
2024-02-21 08:24 am- 0.0 1.0----29.85-------
2024-02-21 08:18 am- 0.0 1.0----29.85-------
2024-02-21 08:12 am- 0.0 1.0----29.84-------
2024-02-21 08:06 am- 0.0 1.0----29.84-------
2024-02-21 08:00 am- 0.0 1.0----29.84-0.03------
2024-02-21 07:54 am- 0.0 1.9----29.84-------
2024-02-21 07:48 amESE 1.9 1.9----29.84-------
2024-02-21 07:42 am SE 1.9 2.9----29.84-------
2024-02-21 07:36 am SE 1.9 2.9----29.84-------
2024-02-21 07:30 am S 1.9 2.9----29.85-------
2024-02-21 07:24 amSSE 1.9 4.1----29.85-------
2024-02-21 07:18 am S 1.9 2.9----29.85-------
2024-02-21 07:12 amSSE 1.9 2.9----29.85-------
2024-02-21 07:06 am SE 1.0 1.9----29.85-------
2024-02-21 07:00 am- 0.0 1.9----29.85-0.05------
2024-02-21 06:54 amSSE 1.0 4.1----29.85-------
2024-02-21 06:48 amSSE 1.9 4.1----29.85-------
2024-02-21 06:42 am SE 2.9 4.1----29.85-------
2024-02-21 06:36 amSSE 4.1 5.1----29.85-------
2024-02-21 06:30 amSSE 2.9 5.1----29.85-------
2024-02-21 06:24 amSSE 4.1 5.1----29.85-------
2024-02-21 06:18 amSSE 4.1 6.0----29.85-------
2024-02-21 06:12 amSSE 4.1 6.0----29.85-------
2024-02-21 06:06 amSSE 4.1 6.0----29.86-------
2024-02-21 06:00 amSSE 5.1 7.0----29.86-0.06------
2024-02-21 05:54 amSSE 5.1 6.0----29.86-------
2024-02-21 05:48 amSSE 5.1 6.0----29.86-------
2024-02-21 05:42 amSSE 5.1 5.1----29.86-------
2024-02-21 05:36 amSSE 4.1 5.1----29.86-------
2024-02-21 05:30 am SE 4.1 5.1----29.86-------
2024-02-21 05:24 amSSE 5.1 6.0----29.87-------
2024-02-21 05:18 am SE 5.1 7.0----29.87-------
2024-02-21 05:12 am SE 6.0 7.0----29.87-------
2024-02-21 05:06 amSSE 6.0 7.0----29.87-------
2024-02-21 05:00 amSSE 6.0 8.0----29.87-0.06------
2024-02-21 04:54 amSSE 6.0 8.0----29.87-------
2024-02-21 04:48 amSSE 7.0 8.9----29.87-------
2024-02-21 04:42 amSSE 7.0 8.0----29.87-------
2024-02-21 04:36 am SE 7.0 8.9----29.88-------
2024-02-21 04:30 amSSE 8.0 9.9----29.88-------
2024-02-21 04:24 amSSE 8.9 9.9----29.88-------
2024-02-21 04:18 amSSE 8.0 9.9----29.88-------
2024-02-21 04:12 amSSE 7.0 8.9----29.89-------
2024-02-21 04:06 am SE 8.0 9.9----29.89-------
2024-02-21 04:00 amSSE 8.0 8.9----29.90-0.07------
2024-02-21 03:54 am SE 7.0 8.9----29.90-------
2024-02-21 03:48 am SE 7.0 8.0----29.90-------
2024-02-21 03:42 am SE 7.0 8.0----29.91-------
2024-02-21 03:36 am SE 7.0 8.9----29.91-------
2024-02-21 03:30 am SE 7.0 8.0----29.91-------
2024-02-21 03:24 am SE 6.0 8.9----29.91-------
2024-02-21 03:18 am SE 8.0 8.9----29.91-------
2024-02-21 03:12 am SE 7.0 8.0----29.91-------
2024-02-21 03:06 am SE 7.0 8.9----29.91-------
2024-02-21 03:00 amESE 7.0 8.9----29.92-0.08------
2024-02-21 02:54 am SE 8.0 9.9----29.92-------
2024-02-21 02:48 am SE 8.9 11.1----29.92-------
2024-02-21 02:42 am SE 9.9 11.1----29.92-------
2024-02-21 02:36 am SE 9.9 12.0----29.93-------
2024-02-21 02:30 am SE 11.1 13.0----29.92-------
2024-02-21 02:24 am SE 9.9 13.0----29.93-------
2024-02-21 02:18 am SE 11.1 12.0----29.93-------
2024-02-21 02:12 am SE 11.1 14.0----29.93-------
2024-02-21 02:06 am SE 11.1 12.0----29.93-------
2024-02-21 02:00 am SE 9.9 13.0----29.93-0.09------
2024-02-21 01:54 am SE 11.1 14.0----29.94-------